TimeMST,TemperatureF,Dew PointF,Humidity,Sea Level PressureIn,VisibilityMPH,Wind Direction,Wind SpeedMPH,Gust SpeedMPH,PrecipitationIn,Events,Conditions,WindDirDegrees,DateUTC
12:53 AM,14.0,6.1,71,30.15,10.0,SW,4.6,-,N/A,,Clear,220,2013-02-11 07:53:00
1:53 AM,19.9,10.0,65,30.14,10.0,Calm,Calm,-,N/A,,Scattered Clouds,0,2013-02-11 08:53:00
2:53 AM,12.0,5.0,73,30.16,10.0,Calm,Calm,-,N/A,,Clear,0,2013-02-11 09:53:00
3:53 AM,10.0,3.9,76,30.17,10.0,Calm,Calm,-,N/A,,Clear,0,2013-02-11 10:53:00
4:53 AM,14.0,8.1,77,30.17,10.0,SSW,3.5,-,N/A,,Mostly Cloudy,200,2013-02-11 11:53:00
5:53 AM,14.0,7.0,74,30.19,10.0,SSW,5.8,-,N/A,,Scattered Clouds,210,2013-02-11 12:53:00
6:53 AM,17.1,9.0,71,30.22,10.0,SSW,3.5,-,N/A,,Overcast,210,2013-02-11 13:53:00
7:53 AM,19.9,10.9,68,30.22,10.0,Calm,Calm,-,N/A,,Mostly Cloudy,0,2013-02-11 14:53:00
8:53 AM,26.1,10.9,53,30.23,10.0,Calm,Calm,-,N/A,,Clear,0,2013-02-11 15:53:00
9:53 AM,30.0,8.1,40,30.22,10.0,Variable,4.6,-,N/A,,Clear,0,2013-02-11 16:53:00
10:53 AM,30.9,8.1,38,30.22,10.0,Variable,5.8,-,N/A,,Overcast,0,2013-02-11 17:53:00
11:53 AM,34.0,8.1,34,30.18,10.0,SSE,8.1,-,N/A,,Overcast,150,2013-02-11 18:53:00
12:53 PM,37.0,8.1,30,30.13,10.0,ESE,12.7,16.1,N/A,,Partly Cloudy,120,2013-02-11 19:53:00
1:53 PM,37.0,8.1,30,30.08,10.0,ESE,10.4,-,N/A,,Clear,120,2013-02-11 20:53:00
2:53 PM,37.9,8.1,29,30.07,10.0,ESE,10.4,-,N/A,,Clear,110,2013-02-11 21:53:00
3:53 PM,39.0,9.0,29,30.05,10.0,ESE,10.4,20.7,N/A,,Clear,110,2013-02-11 22:53:00
4:53 PM,39.9,10.9,31,30.03,10.0,SE,11.5,-,N/A,,Clear,130,2013-02-11 23:53:00
5:53 PM,36.0,10.0,34,30.06,10.0,ESE,8.1,-,N/A,,Clear,110,2013-02-12 00:53:00
6:53 PM,33.1,10.0,38,30.08,10.0,ESE,8.1,-,N/A,,Clear,110,2013-02-12 01:53:00
7:53 PM,30.9,10.0,42,30.09,10.0,ESE,6.9,-,N/A,,Clear,110,2013-02-12 02:53:00
8:53 PM,28.0,10.0,47,30.09,10.0,East,5.8,-,N/A,,Mostly Cloudy,90,2013-02-12 03:53:00
9:53 PM,28.0,10.0,47,30.06,10.0,East,5.8,-,N/A,,Clear,100,2013-02-12 04:53:00
10:53 PM,27.0,10.9,51,30.07,10.0,North,6.9,-,N/A,,Clear,10,2013-02-12 05:53:00
11:53 PM,25.0,10.0,53,30.06,10.0,ENE,5.8,-,N/A,,Overcast,70,2013-02-12 06:53:00